Location: Kerguer�zec
(48.4509°N, 4.7600°W)
Time: 13:48:06
(UTC+00:00)

STARLINK-1245 - Visible Passes

Search period start: 06 August 2020 00:00
Search period end: 16 August 2020 00:00
Orbit: 549 x 550 km, 53.0° (Epoch: 05 August)

Date Brightness Start Highest point End Pass type
(mag) Time Alt. Az. Time Alt. Az. Time Alt. Az.
06 Aug 4.2 20:20:55 10° W 20:25:02 59° NNW 20:29:08 10° ENE visible
06 Aug 4.7 22:01:05 10° WNW 22:05:03 44° N 22:08:43 12° ENE visible
06 Aug 4.0 23:40:50 10° WNW 23:44:21 62° NW 23:44:21 62° NW visible
07 Aug 4.4 20:15:35 10° W 20:19:39 53° NNW 20:23:44 10° ENE visible
07 Aug 4.6 21:55:44 10° WNW 21:59:44 45° N 22:02:57 15° ENE visible
07 Aug 4.2 23:35:26 10° WNW 23:38:35 51° WNW 23:38:35 51° WNW visible
08 Aug 4.4 21:50:26 10° WNW 21:54:28 48° N 21:57:19 18° E visible
08 Aug 4.5 23:30:06 10° WNW 23:32:57 41° W 23:32:57 41° W visible
09 Aug 4.2 21:45:11 10° WNW 21:49:15 53° NNE 21:51:47 21° E visible
09 Aug 4.8 23:24:51 10° WNW 23:27:25 34° W 23:27:25 34° W visible
10 Aug 4.0 21:39:59 10° WNW 21:44:06 59° NNE 21:46:22 25° E visible
10 Aug 5.1 23:19:42 10° WNW 23:22:00 28° W 23:22:00 28° W visible
11 Aug 3.8 21:34:50 10° WNW 21:38:59 68° NNE 21:41:02 28° E visible
11 Aug 5.4 23:14:39 10° WNW 23:16:41 24° W 23:16:41 24° W visible
12 Aug 3.6 21:29:45 10° WNW 21:33:55 80° NNE 21:35:49 31° ESE visible
12 Aug 5.6 23:09:44 10° W 23:11:29 20° W 23:11:29 20° W visible
13 Aug 3.5 21:24:45 10° WNW 21:28:54 85° SSW 21:30:42 33° ESE visible
13 Aug 5.8 23:04:58 10° W 23:06:22 16° WSW 23:06:22 16° WSW visible
14 Aug 3.6 21:19:48 10° WNW 21:23:56 70° SSW 21:25:42 33° SE visible
14 Aug 6.1 23:00:28 10° W 23:01:22 13° WSW 23:01:22 13° WSW visible
15 Aug 3.9 21:14:57 10° WNW 21:19:00 55° SW 21:20:47 30° SSE visible
15 Aug 6.3 22:56:26 10° WSW 22:56:28 10° WSW 22:56:28 10° WSW visible
